This is the latest recevied weather packets stored in our database for station/object WC4PEM-10. If no packets are shown the sender has not sent any weather packets the latest 1 day(s).
| Time | Temp. | Humidity | Pressure | Rain* | Wind** | Luminosity | Snow |
|---|---|---|---|---|---|---|---|
| 1778021687 | 28.89° C | 55% | 1013.8 hPa | 0 mm | 3.13 m/s, 80° | - | - |
| 1778021487 | 28.89° C | 55% | 1013.8 hPa | 0 mm | 3.13 m/s, 80° | - | - |
| 1778021413 | 28.89° C | 54% | 1013.8 hPa | 0 mm | 2.68 m/s, 93° | - | - |
| 1778021187 | 28.89° C | 54% | 1013.8 hPa | 0 mm | 2.68 m/s, 93° | - | - |
| 1778021110 | 28.89° C | 54% | 1013.9 hPa | 0 mm | 2.68 m/s, 101° | - | - |
| 1778020887 | 28.89° C | 54% | 1013.9 hPa | 0 mm | 2.68 m/s, 101° | - | - |
| 1778020587 | 28.89° C | 53% | 1013.9 hPa | 0 mm | 3.13 m/s, 38° | - | - |
| 1778020520 | 28.89° C | 52% | 1013.7 hPa | 0 mm | 3.58 m/s, 75° | - | - |
| 1778020287 | 28.89° C | 53% | 1013.8 hPa | 0 mm | 3.58 m/s, 97° | - | - |
| 1778020190 | 28.89° C | 52% | 1013.7 hPa | 0 mm | 3.58 m/s, 75° | - | - |
| 1778019987 | 28.89° C | 52% | 1013.7 hPa | 0 mm | 3.58 m/s, 75° | - | - |
| 1778019923 | 29.44° C | 52% | 1013.7 hPa | 0 mm | 4.02 m/s, 128° | - | - |
| 1778019687 | 29.44° C | 52% | 1013.7 hPa | 0 mm | 4.02 m/s, 128° | - | - |
| 1778019387 | 29.44° C | 53% | 1013.7 hPa | 0 mm | 4.47 m/s, 93° | - | - |
| 1778019290 | 29.44° C | 52% | 1013.7 hPa | 0 mm | 4.02 m/s, 104° | - | - |
| 1778019087 | 29.44° C | 52% | 1013.7 hPa | 0 mm | 4.02 m/s, 104° | - | - |
| 1778019033 | 29.44° C | 52% | 1013.7 hPa | 0 mm | 4.02 m/s, 110° | - | - |
| 1778018787 | 29.44° C | 52% | 1013.7 hPa | 0 mm | 4.02 m/s, 110° | - | - |
| 1778018718 | 29.44° C | 53% | 1013.7 hPa | 0 mm | 4.92 m/s, 93° | - | - |
| 1778018487 | 29.44° C | 53% | 1013.7 hPa | 0 mm | 4.92 m/s, 93° | - | - |
| 1778018187 | 29.44° C | 52% | 1013.7 hPa | 0 mm | 4.47 m/s, 59° | - | - |
| 1778017887 | 29.44° C | 53% | 1013.6 hPa | 0 mm | 4.47 m/s, 83° | - | - |
| 1778017676 | 29.44° C | 53% | 1013.8 hPa | 0 mm | 4.47 m/s, 61° | - | - |
| 1778017667 | 29.44° C | 53% | 1013.7 hPa | 0 mm | 4.02 m/s, 92° | - | - |
| 1778017587 | 29.44° C | 53% | 1013.8 hPa | 0 mm | 4.47 m/s, 61° | - | - |
* Rain latest hour (hover to see other rain measurements)
** Current wind speed in m/s (hover to see current wind gust speed)